Location: D�derode
(51.8092°N, 10.1065°E)
Time: 07:04:21
(UTC+00:00)

Cosmos 923 Rocket - Pass Details

Date: 01 December 2020
Orbit: 757 x 786 km, 74.0° (Epoch: 23 January)

Event Time Altitude Azimuth Distance (km) Brightness Sun altitude
Rises 17:17:22 0° 178° (S) 3,203 7.3 -18.4°
Reaches altitude 10° 17:19:51 10° 170° (S) 2,284 6.5 -18.7°
Maximum altitude 17:24:35 37° 104° (ESE) 1,167 4.5 -19.5°
Enters shadow 17:24:50 37° 97° (E) 1,172 4.4 -19.5°
